Simultaneous Nadir Overpasses (SNOs) Predictions

Prediction of SNOs between AURA and NPP Satellite Orbit:

Table of predicted SNOs for the next 14.0 days since TLE Epoch: 12/14/2019
Index Date (AURA) Time (AURA) Lat,Lon (AURA) SZA (AURA ) Date (NPP) Time (NPP) Lat,Lon (NPP) SZA (NPP ) Distance(km) Time Diff (sec)
1 12/14/2019 03:41:27 -79.59,-157.91 65.20 12/14/2019 03:41:21 -79.59,-157.96 65.19 1.08 6
2 12/14/2019 04:30:46 79.85, 11.65 114.44 12/14/2019 04:31:57 79.86, 11.73 114.37 1.65 71
3 12/16/2019 19:08:34 79.40, 148.96 115.26 12/16/2019 19:07:35 79.39, 148.87 115.33 1.94 59
4 12/16/2019 19:57:53 -79.70, -41.25 65.16 12/16/2019 19:58:11 -79.70, -41.21 65.18 0.84 18
5 12/19/2019 11:24:59 79.54, -94.18 115.21 12/19/2019 11:24:24 79.54, -94.17 115.24 0.35 35
6 12/19/2019 12:14:21 -79.73, 74.85 65.06 12/19/2019 12:15:04 -79.72, 74.70 65.07 3.17 43
7 12/22/2019 03:41:24 79.67, 22.67 115.11 12/22/2019 03:41:13 79.68, 22.82 115.09 3.12 11
8 12/22/2019 04:30:47 -79.83,-168.53 65.11 12/22/2019 04:31:54 -79.83,-168.55 65.16 0.29 67
9 12/24/2019 19:08:33 -79.40, -31.01 64.48 12/24/2019 19:07:30 -79.39, -31.12 64.41 2.34 63
10 12/24/2019 19:57:51 79.69, 138.69 115.12 12/24/2019 19:58:05 79.69, 138.69 115.11 0.02 14
11 12/27/2019 11:24:57 -79.57, 86.04 64.74 12/27/2019 11:24:18 -79.57, 86.10 64.72 1.38 39




NCC Satellite Simultaneous Nadir Overpasses (SNOs) Prediction Service
